EW7639 Hope Valley RI US current weather conditions

sailwx.info

Wind from 011 at 0 knots gusting 4

Air temperature -1.1° C
Dewpoint -7.0° C

Last reported at 2019-Dec-12 18:01 UTC.
Time now 2019-Dec-12 19:00 UTC

Location: N 41°31' W 071°42'.
View on Google Maps.

See reports from other nearby stations

  
Tides and Currents Weather Stations Pressure Air Temp Water Temp Dewpoint Dewpoint Depression Visibility Wind Speed Wind Dir Waves Ship Positions
date/time (UTC)wind fromknots sea level pressurealtimeterstation pressurevisibilityair tempwater tempwave heightnotes
2019-Dec-12 18:01 011 0 gusting 4 -1.1
2019-Dec-12 17:45 348 2 gusting 5 -1.1
2019-Dec-12 17:30 249 0 gusting 5 -1.1
2019-Dec-12 17:16 028 2 gusting 6 -1.7
2019-Dec-12 17:00 051 1 gusting 6 -1.7
2019-Dec-12 16:45 306 1 gusting 6 -1.7
2019-Dec-12 16:30 023 3 gusting 7 -1.7
2019-Dec-12 16:16 304 3 gusting 6 -1.7
2019-Dec-12 16:00 017 2 gusting 7 -1.7
2019-Dec-12 15:45 209 1 gusting 6 -2.2
2019-Dec-12 15:15 050 2 gusting 6 -2.2
2019-Dec-12 15:00 046 1 gusting 8 -2.8
2019-Dec-12 14:48 039 2 gusting 6 -2.8
2019-Dec-12 14:32 348 0 gusting 5 -2.8
2019-Dec-12 14:17 314 -2.8
2019-Dec-12 14:02 101 -2.8
2019-Dec-12 13:47 014 0 gusting 4 -3.3
2019-Dec-12 13:32 230 0 gusting 4 -3.9
2019-Dec-12 13:16 326 0 gusting 3 -4.4
2019-Dec-12 13:01 263 0 gusting 4 -5.6
2019-Dec-12 12:46 228 0 gusting 3 -5.6
2019-Dec-12 12:32 271 0 gusting 4 -6.1
2019-Dec-12 12:16 115 0 gusting 5 -6.1
2019-Dec-12 12:01 040 0 gusting 5 -6.1
2019-Dec-12 11:46 263 0 gusting 6 -6.1
2019-Dec-12 11:31 088 0 gusting 6 -6.1
2019-Dec-12 11:17 069 1 gusting 5 -6.1
2019-Dec-12 11:01 179 0 gusting 6 -6.1
2019-Dec-12 10:46 181 -6.1
2019-Dec-12 10:31 243 -6.1
2019-Dec-12 10:15 057 0 gusting 3 -6.1
2019-Dec-12 10:00 287 -5.6
2019-Dec-12 09:45 355 0 gusting 4 -5.6
2019-Dec-12 09:30 245 -5.0
2019-Dec-12 09:15 043 -5.0
2019-Dec-12 09:00 246 0 gusting 3 -5.0
2019-Dec-12 08:45 172 0 gusting 4 -5.0
2019-Dec-12 08:33 302 0 gusting 5 -5.0
2019-Dec-12 08:17 304 0 gusting 4 -5.0
2019-Dec-12 08:02 057 0 gusting 6 -4.4
2019-Dec-12 07:47 041 1 gusting 5 -4.4
2019-Dec-12 07:32 267 1 gusting 5 -4.4
2019-Dec-12 07:01 174 0 gusting 8 -4.4
2019-Dec-12 06:47 040 0 gusting 8 -4.4
2019-Dec-12 06:31 200 -5.0
2019-Dec-12 06:16 279 -5.0
2019-Dec-12 06:01 279 -5.0
2019-Dec-12 05:46 279 -5.0
2019-Dec-12 05:31 279 -5.0
2019-Dec-12 05:16 279 -5.0
2019-Dec-12 05:00 236 -5.0
2019-Dec-12 04:45 236 -5.0
2019-Dec-12 04:30 236 -5.0
2019-Dec-12 04:15 236 -4.4
2019-Dec-12 04:00 236 -3.9
2019-Dec-12 03:46 236 -3.9
2019-Dec-12 03:30 236 -3.3
2019-Dec-12 03:15 236 -3.3
2019-Dec-12 03:00 094 -3.3
2019-Dec-12 02:45 093 -3.3
2019-Dec-12 02:30 238 -3.3
2019-Dec-12 02:15 238 -3.9
2019-Dec-12 02:02 234 -5.0
2019-Dec-12 01:47 255 -6.1
2019-Dec-12 01:33 256 -6.7
2019-Dec-12 01:16 255 -6.7
2019-Dec-12 01:04 255 -6.7
2019-Dec-12 00:47 256 -6.1
2019-Dec-12 00:31 255 -6.1
2019-Dec-12 00:18 255 -6.1
2019-Dec-12 00:05 255 -5.6
2019-Dec-11 23:46 255 -5.6
2019-Dec-11 23:32 255 -5.6
2019-Dec-11 23:18 255 -5.0
2019-Dec-11 23:02 255 -5.0
2019-Dec-11 22:46 255 -4.4
2019-Dec-11 22:31 255 -4.4
2019-Dec-11 22:16 255 -3.9
2019-Dec-11 22:00 255 -3.3
2019-Dec-11 21:46 255 -2.8
2019-Dec-11 21:31 255 -2.8
2019-Dec-11 21:16 255 -2.2
2019-Dec-11 21:00 255 -1.7
2019-Dec-11 20:47 255 -1.1
2019-Dec-11 20:30 250 -1.1
2019-Dec-11 20:15 255 -0.6
2019-Dec-11 20:01 232 0 gusting 3 -0.6
2019-Dec-11 19:46 190 -0.6
2019-Dec-11 19:30 323 0 gusting 3 -0.6
2019-Dec-11 19:15 229 0 gusting 3 -0.6
2019-Dec-11 19:00 076 -0.6
2019-Dec-11 18:45 291 -0.6
2019-Dec-11 18:30 005 0 gusting 2 -0.6
2019-Dec-11 18:15 234 0 gusting 3 -0.6
2019-Dec-11 18:01 163 -0.6
2019-Dec-11 17:45 355 1 gusting 4 -0.6
2019-Dec-11 17:30 198 -0.6
2019-Dec-11 17:15 291 -1.1
2019-Dec-11 17:00 058 -1.1
2019-Dec-11 16:45 288 -1.1
2019-Dec-11 16:31 273 -1.7
2019-Dec-11 16:15 323 -2.2
2019-Dec-11 16:01 024 -2.2
2019-Dec-11 15:45 188 -2.2
2019-Dec-11 15:30 005 -2.2
2019-Dec-11 15:15 035 -1.7
2019-Dec-11 15:00 258 -1.7
2019-Dec-11 14:45 307 -1.7
2019-Dec-11 14:30 200 -1.7
2019-Dec-11 14:15 200 -1.7
2019-Dec-11 14:00 294 -1.7
2019-Dec-11 13:45 245 -1.7
2019-Dec-11 13:32 044 1 gusting 4 -1.7
2019-Dec-11 13:17 348 -1.7
2019-Dec-11 13:02 323 0 gusting 4 -1.7
2019-Dec-11 12:46 240 -1.7
2019-Dec-11 12:32 013 -1.7
2019-Dec-11 12:16 017 1 gusting 6 -1.1
2019-Dec-11 12:02 300 1 gusting 4 -1.1
2019-Dec-11 11:47 022 -0.6
2019-Dec-11 11:31 034 -0.6
2019-Dec-11 11:16 005 0 gusting 2 -0.6
2019-Dec-11 11:02 326 0 gusting 6 -0.6
2019-Dec-11 10:47 333 -0.0
2019-Dec-11 10:33 146 0 gusting 5 -0.0
2019-Dec-11 10:19 019 2 gusting 6 -0.0
2019-Dec-11 10:01 275 0 gusting 6 -0.0
2019-Dec-11 09:47 012 0 gusting 4 -0.0
2019-Dec-11 09:32 051 0.6
2019-Dec-11 09:16 044 0 gusting 3 0.6
2019-Dec-11 09:01 360 0.6
2019-Dec-11 08:46 355 0.6
2019-Dec-11 08:30 016 1.1
2019-Dec-11 08:16 325 0 gusting 4 1.1
2019-Dec-11 08:01 334 1.1
2019-Dec-11 07:46 005 1.7
2019-Dec-11 07:30 013 1.7
2019-Dec-11 07:15 037 0 gusting 6 2.2
2019-Dec-11 07:00 333 0 gusting 5 2.8
2019-Dec-11 06:45 005 2.8
2019-Dec-11 06:33 028 0 gusting 3 3.3
2019-Dec-11 06:18 347 0 gusting 4 3.3
2019-Dec-11 06:02 009 3.9
2019-Dec-11 05:47 299 3.9
2019-Dec-11 05:32 046 4.4
2019-Dec-11 05:16 044 4.4
2019-Dec-11 05:03 032 4.4
2019-Dec-11 04:46 281 4.4
2019-Dec-11 04:33 048 5.0
2019-Dec-11 04:16 117 5.0
2019-Dec-11 04:01 080 5.6
2019-Dec-11 03:46 301 5.6
2019-Dec-11 03:30 215 5.6
2019-Dec-11 03:16 246 6.1
2019-Dec-11 03:01 112 6.1
2019-Dec-11 02:46 005 0 gusting 6 6.1
2019-Dec-11 02:32 042 6.1
2019-Dec-11 02:15 197 6.7
2019-Dec-11 02:00 076 6.7
2019-Dec-11 01:46 122 0 gusting 4 7.2
2019-Dec-11 01:30 022 1 gusting 6 7.8
2019-Dec-11 01:15 071 0 gusting 6 8.9
2019-Dec-11 01:00 279 3 gusting 6 10.6
2019-Dec-11 00:47 219 11.1
2019-Dec-11 00:33 214 11.1
2019-Dec-11 00:16 230 11.1
2019-Dec-11 00:01 222 11.1
2019-Dec-10 23:48 225 11.1
2019-Dec-10 23:33 250 0 gusting 3 11.1
2019-Dec-10 23:17 261 11.1
2019-Dec-10 23:02 259 0 gusting 3 11.1
2019-Dec-10 22:48 259 0 gusting 3 11.1
2019-Dec-10 22:36 242 0 gusting 3 11.1
2019-Dec-10 22:16 254 1 gusting 4 11.1
2019-Dec-10 22:01 238 11.7
2019-Dec-10 21:46 263 11.7
2019-Dec-10 21:32 246 11.7
2019-Dec-10 21:17 230 11.7
2019-Dec-10 21:04 225 11.7
2019-Dec-10 20:47 140 11.7
2019-Dec-10 20:30 232 11.7
2019-Dec-10 20:17 208 11.7
2019-Dec-10 20:03 239 0 gusting 4 11.7
2019-Dec-10 19:46 230 11.7
2019-Dec-10 19:31 223 11.7
2019-Dec-10 19:16 246 1 gusting 4 12.2
2019-Dec-10 19:03 234 0 gusting 3 12.2